When you browse on this site, cookies collect data to enhance your experience and personalize the content and advertising you see.
Visit our Privacy Policy to learn more. By continuing to use the site, you agree to this use of cookies and data.
  • In Hungary
  • List of Countries
  • For 7 days
  • Water Temperature
  • Satellite Maps
  • Weather Map
  • News
  • Weather Widgets
  • user-avatar
    Login

    Hourly Weather Radevormwald

    Today, 23 February, Saturday

    Time Temperature Precipitation Wind Pressure Humidity
    00:00 +5°C° 0 mm 1 mps 746 mmHg 94%
    01:00 +4°C° 0 mm 2 mps 746 mmHg 93%
    02:00 +3°C° 0 mm 2 mps 746 mmHg 92%
    03:00 +3°C° 0 mm 2 mps 746 mmHg 91%
    04:00 +3°C° 0 mm 2 mps 746 mmHg 90%
    05:00 +2°C° 0 mm 2 mps 746 mmHg 88%
    06:00 +2°C° 0 mm 2 mps 746 mmHg 87%
    07:00 +1°C° 0 mm 3 mps 746 mmHg 79%
    08:00 +2°C° 0 mm 3 mps 746 mmHg 72%
    09:00 +3°C° 0 mm 3 mps 746 mmHg 64%
    10:00 +4°C° 0 mm 3 mps 746 mmHg 56%
    11:00 +7°C° 0 mm 3 mps 746 mmHg 48%
    12:00 +8°C° 0 mm 2 mps 746 mmHg 40%
    13:00 +9°C° 0 mm 3 mps 746 mmHg 40%
    14:00 +9°C° 0 mm 3 mps 746 mmHg 41%
    15:00 +9°C° 0 mm 3 mps 746 mmHg 41%
    16:00 +8°C° 0 mm 2 mps 746 mmHg 46%
    17:00 +6°C° 0 mm 2 mps 746 mmHg 52%
    18:00 +4°C° 0 mm 2 mps 746 mmHg 58%
    19:00 +4°C° 0 mm 2 mps 746 mmHg 58%
    20:00 +4°C° 0 mm 2 mps 746 mmHg 58%
    21:00 +3°C° 0 mm 2 mps 746 mmHg 58%
    22:00 +3°C° 0 mm 2 mps 746 mmHg 55%
    23:00 +3°C° 0 mm 2 mps 746 mmHg 53%

    Tomorrow, 24 February, Sunday

    Time Temperature Precipitation Wind Pressure Humidity
    00:00 +2°C° 0 mm 2 mps 746 mmHg 50%
    01:00 +2°C° 0 mm 2 mps 746 mmHg 49%
    02:00 +2°C° 0 mm 2 mps 746 mmHg 47%
    03:00 +2°C° 0 mm 2 mps 746 mmHg 46%
    04:00 +2°C° 0 mm 2 mps 746 mmHg 44%
    05:00 +1°C° 0 mm 2 mps 746 mmHg 43%
    06:00 +2°C° 0 mm 1 mps 746 mmHg 42%
    07:00 +4°C° 0 mm 1 mps 746 mmHg 39%
    08:00 +5°C° 0 mm 1 mps 746 mmHg 37%
    09:00 +7°C° 0 mm 1 mps 747 mmHg 34%
    10:00 +9°C° 0 mm 1 mps 747 mmHg 33%
    11:00 +10°C° 0 mm 1 mps 747 mmHg 31%
    12:00 +12°C° 0 mm 1 mps 747 mmHg 29%
    13:00 +12°C° 0 mm 1 mps 747 mmHg 31%
    14:00 +13°C° 0 mm 1 mps 747 mmHg 33%
    15:00 +13°C° 0 mm 1 mps 747 mmHg 35%
    16:00 +11°C° 0 mm 1 mps 746 mmHg 40%
    17:00 +9°C° 0 mm 1 mps 746 mmHg 45%
    18:00 +8°C° 0 mm 1 mps 746 mmHg 50%
    19:00 +7°C° 0 mm 1 mps 746 mmHg 51%
    20:00 +7°C° 0 mm 1 mps 747 mmHg 52%
    21:00 +6°C° 0 mm 1 mps 747 mmHg 54%
    22:00 +6°C° 0 mm 1 mps 747 mmHg 53%
    23:00 +6°C° 0 mm 1 mps 747 mmHg 53%

    Day after tomorrow, 25 February, Monday

    Time Temperature Precipitation Wind Pressure Humidity
    00:00 +6°C° 0 mm 1 mps 747 mmHg 52%
    01:00 +5°C° 0 mm 1 mps 747 mmHg 53%
    02:00 +5°C° 0 mm 1 mps 747 mmHg 53%
    03:00 +5°C° 0 mm 1 mps 747 mmHg 53%
    04:00 +5°C° 0 mm 1 mps 747 mmHg 54%
    05:00 +5°C° 0 mm 1 mps 747 mmHg 55%
    06:00 +5°C° 0 mm 1 mps 747 mmHg 56%
    07:00 +6°C° 0 mm 1 mps 747 mmHg 54%
    08:00 +8°C° 0 mm 1 mps 747 mmHg 52%
    09:00 +9°C° 0 mm 0 mps 747 mmHg 50%
    10:00 +10°C° 0 mm 0 mps 747 mmHg 46%
    11:00 +12°C° 0 mm 0 mps 747 mmHg 43%
    12:00 +15°C° 0 mm 1 mps 747 mmHg 40%
    13:00 +14°C° 0 mm 0 mps 747 mmHg 41%
    14:00 +14°C° 0 mm 0 mps 746 mmHg 42%
    15:00 +14°C° 0 mm 0 mps 746 mmHg 44%
    16:00 +13°C° 0 mm 1 mps 746 mmHg 49%
    17:00 +12°C° 0 mm 1 mps 746 mmHg 55%
    18:00 +10°C° 0 mm 1 mps 746 mmHg 60%
    19:00 +9°C° 0 mm 1 mps 746 mmHg 62%
    20:00 +9°C° 0 mm 1 mps 746 mmHg 64%
    21:00 +8°C° 0 mm 1 mps 746 mmHg 67%
    22:00 +8°C° 0 mm 1 mps 745 mmHg 68%
    23:00 +8°C° 0 mm 1 mps 745 mmHg 70%

    26 February, Tuesday

    Time Temperature Precipitation Wind Pressure Humidity
    00:00 +7°C° 0 mm 1 mps 745 mmHg 72%
    01:00 +7°C° 0 mm 1 mps 745 mmHg 73%
    02:00 +7°C° 0 mm 1 mps 745 mmHg 74%
    03:00 +7°C° 0 mm 1 mps 744 mmHg 76%
    04:00 +6°C° 0 mm 1 mps 744 mmHg 76%
    05:00 +6°C° 0 mm 1 mps 744 mmHg 76%
    06:00 +5°C° 0 mm 0 mps 744 mmHg 76%
    07:00 +7°C° 0 mm 0 mps 744 mmHg 71%
    08:00 +8°C° 0 mm 0 mps 745 mmHg 65%
    09:00 +10°C° 0 mm 0 mps 745 mmHg 60%
    10:00 +12°C° 0 mm 0 mps 745 mmHg 55%
    11:00 +13°C° 0 mm 0 mps 745 mmHg 50%
    12:00 +15°C° 0 mm 0 mps 745 mmHg 44%
    13:00 +15°C° 0 mm 0 mps 744 mmHg 45%
    14:00 +15°C° 0 mm 0 mps 744 mmHg 45%
    15:00 +16°C° 0 mm 1 mps 744 mmHg 45%
    16:00 +14°C° 0 mm 1 mps 743 mmHg 51%
    17:00 +12°C° 0 mm 1 mps 743 mmHg 58%
    18:00 +10°C° 0 mm 1 mps 743 mmHg 64%
    19:00 +10°C° 0 mm 1 mps 743 mmHg 65%
    20:00 +9°C° 0 mm 1 mps 743 mmHg 67%
    21:00 +9°C° 0 mm 1 mps 743 mmHg 68%
    22:00 +8°C° 0 mm 1 mps 743 mmHg 68%
    23:00 +8°C° 0 mm 1 mps 742 mmHg 69%

    27 February, Wednesday

    Time Temperature Precipitation Wind Pressure Humidity
    00:00 +8°C° 0 mm 1 mps 742 mmHg 69%
    01:00 +8°C° 0 mm 1 mps 742 mmHg 70%
    02:00 +7°C° 0 mm 1 mps 741 mmHg 72%
    03:00 +7°C° 0 mm 1 mps 741 mmHg 73%
    04:00 +7°C° 0 mm 1 mps 741 mmHg 74%
    05:00 +7°C° 0 mm 1 mps 741 mmHg 75%
    06:00 +6°C° 0 mm 1 mps 740 mmHg 76%
    07:00 +8°C° 0 mm 1 mps 740 mmHg 71%
    08:00 +10°C° 0 mm 1 mps 740 mmHg 66%
    09:00 +11°C° 0 mm 1 mps 740 mmHg 60%
    10:00 +13°C° 0 mm 1 mps 740 mmHg 54%
    11:00 +14°C° 0 mm 1 mps 739 mmHg 48%
    12:00 +16°C° 0 mm 1 mps 739 mmHg 42%
    13:00 +16°C° 0 mm 1 mps 738 mmHg 43%
    14:00 +16°C° 0 mm 1 mps 738 mmHg 43%
    15:00 +16°C° 0 mm 1 mps 737 mmHg 43%
    16:00 +14°C° 0 mm 1 mps 737 mmHg 49%
    17:00 +12°C° 0 mm 1 mps 736 mmHg 54%
    18:00 +11°C° 0 mm 1 mps 736 mmHg 59%
    19:00 +10°C° 0 mm 1 mps 736 mmHg 62%
    20:00 +10°C° 0 mm 1 mps 736 mmHg 64%
    21:00 +9°C° 0 mm 1 mps 735 mmHg 67%
    22:00 +8°C° 0 mm 1 mps 735 mmHg 72%
    23:00 +8°C° 0 mm 1 mps 735 mmHg 77%

    28 February, Thursday

    Time Temperature Precipitation Wind Pressure Humidity
    00:00 +6°C° 0 mm 2 mps 735 mmHg 81%
    01:00 +7°C° 0 mm 1 mps 734 mmHg 85%
    02:00 +7°C° 0 mm 1 mps 734 mmHg 88%
    03:00 +6°C° 0 mm 1 mps 734 mmHg 91%
    04:00 +6°C° 0 mm 1 mps 733 mmHg 92%
    05:00 +5°C° 0 mm 1 mps 733 mmHg 93%
    06:00 +5°C° 0 mm 1 mps 733 mmHg 95%
    07:00 +5°C° 0 mm 2 mps 733 mmHg 92%
    08:00 +6°C° 0 mm 2 mps 733 mmHg 89%
    09:00 +7°C° 0 mm 2 mps 734 mmHg 87%
    10:00 +8°C° 0 mm 2 mps 733 mmHg 85%
    11:00 +9°C° 0 mm 2 mps 733 mmHg 84%
    12:00 +9°C° 0 mm 3 mps 733 mmHg 82%
    13:00 +10°C° 0 mm 3 mps 733 mmHg 80%
    14:00 +10°C° 0 mm 3 mps 733 mmHg 78%
    15:00 +10°C° 0 mm 3 mps 733 mmHg 75%
    16:00 +10°C° 0 mm 2 mps 733 mmHg 77%
    17:00 +10°C° 0 mm 2 mps 733 mmHg 79%
    18:00 +9°C° 0 mm 2 mps 733 mmHg 81%
    19:00 +8°C° 0 mm 2 mps 733 mmHg 83%
    20:00 +8°C° 0 mm 2 mps 733 mmHg 84%
    21:00 +7°C° 0 mm 2 mps 733 mmHg 86%
    22:00 +6°C° 0 mm 2 mps 733 mmHg 88%
    23:00 +6°C° 0 mm 2 mps 733 mmHg 91%
    Show more